Temperature
10 8 7 7 8 7 7 8 7 8 6 6 5 4 2 1 -2 -3 -4 -6 -7 -8 -9 -10 -11 -11 -11 -11 -11 -12 -13 -13 -13 -13 -14 -14 -14 -14 -14 -14 -14 -13 -13 -12
9 6 6 6 7 7 6 6 6 6 6 5 4 3 2 -0 -3 -4 -5 -7 -8 -9 -10 -10 -10 -10 -10 -11 -11 -12 -13 -13 -13 -13 -13 -13 -14 -14 -14 -14 -14 -13 -13 -13
10 7 7 8 8 7 6 6 6 6 6 4 4 2 0 -2 -4 -5 -7 -8 -9 -9 -10 -10 -10 -10 -10 -11 -11 -12 -12 -13 -13 -13 -13 -14 -14 -15 -15 -15 -14 -14 -14 -13
9 9 10 8 5 5 6 6 5 5 4 4 2 1 -2 -4 -6 -6 -8 -9 -9 -9 -9 -9 -9 -10 -10 -11 -12 -12 -12 -12 -13 -13 -14 -15 -15 -15 -15 -15 -15 -15 -14 -14
7 9 11 6 4 4 5 5 5 5 4 3 1 -0 -1 -5 -7 -8 -8 -8 -8 -8 -8 -9 -10 -10 -10 -11 -12 -12 -12 -13 -13 -14 -15 -15 -15 -15 -15 -15 -15 -15 -14 -14
5 7 10 8 4 3 4 5 4 3 3 1 -0 1 -1 -6 -7 -7 -7 -8 -7 -8 -8 -9 -10 -10 -11 -11 -12 -12 -12 -13 -13 -15 -15 -15 -15 -15 -15 -15 -15 -14 -14 -13
6 7 11 6 3 3 5 6 3 2 1 -1 -1 -2 -5 -7 -7 -6 -7 -7 -7 -8 -8 -9 -10 -10 -11 -11 -11 -12 -12 -12 -14 -14 -15 -15 -15 -15 -15 -15 -15 -14 -14 -13
7 7 8 3 2 4 5 3 2 1 -1 -2 -3 -5 -6 -6 -6 -6 -7 -7 -7 -7 -8 -9 -10 -11 -10 -11 -11 -11 -11 -12 -14 -14 -15 -15 -15 -15 -15 -15 -15 -14 -14 -13
9 9 5 3 4 3 3 2 1 -0 -1 -2 -4 -5 -5 -6 -6 -7 -7 -7 -7 -8 -8 -9 -10 -11 -11 -11 -11 -11 -12 -13 -14 -14 -15 -14 -15 -15 -14 -14 -14 -14 -14 -14
7 6 4 3 2 2 2 1 1 -1 -2 -3 -4 -5 -5 -6 -6 -6 -7 -7 -7 -8 -8 -9 -10 -10 -11 -11 -11 -11 -12 -13 -14 -15 -14 -14 -14 -14 -14 -14 -14 -14 -14 -14
7 5 2 2 2 2 2 1 -0 -1 -2 -3 -4 -5 -5 -6 -6 -6 -6 -7 -7 -8 -9 -9 -10 -10 -10 -11 -11 -12 -13 -13 -14 -14 -14 -14 -14 -14 -14 -14 -14 -15 -15 -15
10 6 6 4 1 2 1 0 -1 -2 -3 -4 -5 -5 -5 -6 -6 -6 -6 -7 -7 -8 -8 -9 -9 -10 -10 -10 -11 -12 -13 -14 -14 -14 -14 -14 -14 -14 -14 -14 -15 -15 -15 -15
5 4 4 2 1 1 1 -0 -1 -3 -4 -4 -5 -5 -5 -6 -6 -6 -6 -7 -7 -8 -8 -9 -9 -9 -9 -10 -10 -12 -13 -14 -14 -14 -14 -14 -14 -14 -14 -14 -14 -15 -16 -16
4 4 1 1 1 1 -0 -1 -2 -3 -4 -4 -5 -5 -5 -6 -6 -6 -6 -7 -7 -8 -8 -9 -9 -9 -9 -10 -10 -12 -13 -13 -14 -14 -14 -14 -14 -14 -14 -14 -15 -15 -16 -16
3 3 3 2 1 0 -1 -2 -3 -3 -4 -5 -5 -5 -5 -6 -6 -6 -6 -7 -7 -8 -8 -9 -9 -9 -9 -9 -10 -11 -12 -13 -14 -14 -14 -14 -14 -14 -14 -14 -15 -15 -15 -15
2 2 2 2 1 -0 -1 -2 -3 -3 -4 -5 -5 -5 -5 -6 -6 -6 -6 -7 -7 -7 -8 -9 -9 -9 -9 -9 -10 -11 -11 -11 -13 -13 -13 -14 -14 -15 -15 -14 -15 -15 -15 -15
2 1 1 1 1 -0 -1 -2 -3 -3 -4 -4 -5 -5 -5 -5 -6 -6 -6 -7 -7 -8 -8 -8 -9 -9 -9 -9 -10 -10 -10 -11 -13 -13 -13 -13 -14 -15 -15 -15 -15 -15 -15 -15
5 5 4 4 2 0 -1 -2 -3 -4 -4 -4 -5 -5 -5 -5 -5 -5 -6 -6 -7 -7 -8 -8 -8 -9 -9 -9 -9 -9 -10 -10 -11 -13 -13 -13 -13 -14 -14 -15 -15 -15 -15 -15
3 3 2 2 1 0 -1 -2 -3 -4 -4 -4 -5 -5 -5 -5 -5 -6 -6 -6 -6 -6 -7 -7 -8 -8 -9 -9 -9 -9 -9 -10 -11 -12 -13 -13 -13 -13 -14 -14 -15 -15 -15 -15
2 2 2 2 1 -0 -1 -2 -3 -4 -4 -4 -5 -5 -5 -5 -5 -6 -6 -6 -6 -6 -7 -8 -8 -8 -9 -9 -9 -9 -9 -9 -10 -11 -12 -13 -12 -13 -13 -13 -14 -14 -15 -15
2 2 2 1 0 -1 -2 -2 -3 -4 -4 -4 -5 -5 -5 -5 -5 -6 -6 -6 -6 -6 -7 -7 -7 -8 -9 -9 -9 -9 -9 -9 -9 -10 -11 -12 -12 -12 -12 -12 -13 -13 -13 -13
2 2 1 1 0 -1 -2 -3 -4 -4 -4 -4 -4 -5 -5 -5 -5 -5 -5 -6 -6 -6 -6 -7 -7 -8 -8 -9 -9 -9 -9 -9 -9 -9 -10 -11 -11 -11 -11 -11 -12 -12 -13 -13
2 1 1 0 -0 -1 -2 -3 -4 -4 -5 -5 -5 -5 -5 -5 -5 -5 -5 -6 -6 -6 -6 -6 -7 -7 -8 -8 -8 -9 -9 -9 -9 -9 -10 -10 -10 -10 -10 -10 -10 -11 -11 -12
2 1 1 -0 -1 -2 -2 -3 -4 -5 -5 -5 -5 -5 -5 -5 -5 -5 -5 -6 -6 -6 -6 -6 -6 -7 -7 -8 -8 -8 -8 -9 -9 -9 -9 -9 -10 -10 -10 -10 -10 -10 -10 -10
1 1 0 -1 -1 -2 -3 -3 -4 -5 -5 -5 -5 -5 -5 -5 -5 -5 -6 -6 -6 -6 -6 -6 -6 -6 -7 -7 -7 -8 -8 -9 -9 -9 -9 -10 -10 -10 -10 -10 -10 -10 -10 -10
1 1 1 -0 -1 -2 -3 -3 -4 -4 -5 -5 -5 -5 -5 -5 -5 -5 -6 -6 -6 -6 -6 -6 -6 -6 -6 -7 -7 -7 -8 -8 -8 -9 -9 -9 -10 -9 -10 -10 -10 -10 -10 -10
1 0 -0 -1 -2 -2 -3 -3 -4 -4 -4 -5 -5 -5 -5 -5 -5 -6 -6 -6 -6 -6 -6 -6 -6 -6 -6 -7 -7 -7 -7 -7 -8 -8 -8 -9 -9 -9 -9 -10 -10 -10 -10 -10
Wind_Speed
6 3 3 5 7 8 10 8 8 7 11 15 13 15 15 14 14 15 16 16 15 16 16 17 17 17 17 17 16 16 16 16 16 17 18 19 19 20 20 20 20 20 20 20
3 2 4 7 10 9 10 10 11 13 12 7 12 13 14 14 12 15 16 16 16 16 17 18 18 17 17 17 17 17 16 16 16 17 18 18 19 19 20 20 20 19 19 20
2 2 6 6 6 9 6 7 6 6 8 10 13 13 13 10 10 14 15 15 16 16 16 17 17 17 17 17 17 17 16 16 17 17 18 19 19 19 19 19 19 19 19 19
4 5 4 3 2 2 6 7 8 7 7 8 10 11 6 4 10 13 13 14 14 14 15 16 16 16 16 16 16 17 17 17 18 18 18 19 19 18 18 17 17 17 18 19
2 4 5 3 4 4 3 5 6 7 5 7 8 10 0 4 9 10 11 12 13 13 14 15 15 16 17 17 17 17 17 18 18 18 18 19 18 18 17 17 16 16 17 18
2 4 4 3 7 5 3 2 7 6 6 6 7 9 7 6 7 9 11 11 12 13 14 14 15 16 17 17 17 18 19 19 20 19 19 19 18 18 17 16 15 16 16 16
4 5 5 5 10 7 1 2 7 5 3 1 3 5 5 5 7 8 10 11 12 13 13 14 15 16 17 18 18 18 19 20 20 20 18 17 17 16 16 15 14 14 15 14
4 5 4 12 9 4 3 5 4 3 2 1 1 2 3 5 7 9 11 12 13 13 14 14 14 15 17 17 18 19 19 20 20 19 17 15 16 15 14 13 12 13 13 13
6 4 4 12 4 6 5 5 4 4 4 3 1 1 3 5 7 8 10 11 12 13 15 15 15 15 16 17 18 19 20 19 18 18 17 16 15 15 13 13 11 11 10 10
5 3 5 10 6 6 5 6 6 6 6 4 3 2 2 4 6 8 9 10 12 13 15 15 16 15 15 16 17 18 19 18 17 17 17 16 13 12 12 12 12 11 9 9
8 4 3 7 10 8 9 9 9 8 6 5 4 3 1 4 6 7 9 10 11 12 14 15 16 16 16 16 17 18 18 18 17 16 16 16 15 13 12 11 11 11 10 7
3 5 4 6 12 12 11 10 9 9 8 6 4 3 1 3 5 7 9 10 12 13 14 15 15 16 17 17 17 18 17 17 15 15 15 14 13 13 15 14 14 13 12 9
3 6 7 12 12 10 10 11 9 8 8 7 5 2 1 3 4 7 8 10 11 12 13 14 14 15 17 17 17 18 17 16 15 15 14 14 13 13 13 14 13 11 11 9
11 12 9 8 8 11 12 12 11 10 8 7 5 3 1 3 5 7 8 10 11 11 12 13 14 15 17 17 17 17 16 16 16 14 14 14 13 12 11 11 10 9 9 8
12 6 9 13 14 13 13 12 11 9 8 6 4 2 1 3 5 7 8 9 10 10 11 13 14 16 17 17 16 16 14 13 14 13 14 15 14 13 12 10 9 9 8 7
13 12 14 15 15 14 13 12 11 10 8 6 4 2 1 3 4 6 7 8 8 10 11 12 14 16 17 15 15 13 13 16 16 13 14 14 13 13 12 11 10 9 8 7
16 13 13 14 14 14 13 12 11 10 9 7 5 2 1 2 3 5 7 7 7 8 9 11 14 16 16 16 14 11 11 13 17 14 13 13 12 12 12 11 11 9 8 9
13 15 17 18 17 15 13 11 11 10 8 7 5 3 0 3 5 7 8 8 8 8 10 13 15 16 15 15 13 10 10 11 11 12 13 12 12 11 11 11 11 10 9 9
11 13 13 14 14 14 13 12 11 10 9 8 6 4 1 2 3 6 7 7 8 9 12 15 20 16 13 17 16 9 10 11 11 11 12 14 12 10 10 11 11 10 10 8
10 12 14 14 13 12 13 12 12 10 8 7 6 4 2 1 3 4 4 4 4 6 11 13 14 12 12 15 15 10 10 11 11 11 12 12 12 11 10 10 10 10 9 9
13 13 14 15 13 13 13 14 13 11 9 8 6 5 2 0 2 3 3 3 5 9 11 12 11 10 12 14 12 9 10 11 11 11 11 11 11 11 10 10 9 9 9 9
13 14 14 15 15 14 13 13 12 11 10 8 6 5 3 1 1 2 1 3 7 11 9 8 10 13 16 13 9 9 10 11 11 11 11 11 10 10 9 9 9 9 9 9
15 15 15 15 15 14 13 12 11 11 10 9 8 6 3 2 1 2 2 4 7 10 8 7 12 16 15 11 9 10 10 11 12 12 12 12 12 11 10 10 10 9 9 9
16 15 13 12 13 14 13 12 10 9 8 7 6 5 3 2 2 2 4 7 9 9 7 8 12 14 12 9 8 9 10 10 11 12 12 13 12 12 12 12 11 11 11 12
15 14 13 14 14 12 12 12 10 8 8 7 6 6 5 3 2 1 3 5 7 7 6 8 10 11 10 8 8 9 9 9 10 11 12 12 13 13 14 14 14 13 12 11
15 13 13 13 11 11 11 11 11 10 9 8 7 7 5 4 3 2 2 3 4 4 4 5 7 8 8 8 9 9 9 10 10 11 11 12 14 14 14 16 17 16 14 14
13 12 11 10 10 11 11 12 11 11 11 10 9 8 7 5 4 3 2 2 2 2 3 4 5 6 7 7 8 9 9 10 11 12 13 13 13 13 15 16 17 18 19 20
Wind_Direction
271 269 246 256 247 221 223 246 265 297 303 317 333 333 336 341 341 344 344 346 346 345 343 342 340 339 338 336 336 335 333 334 335 335 333 333 334 336 335 334 334 331 332 332
265 210 246 264 252 239 240 250 258 281 298 329 323 325 333 341 341 340 342 342 344 343 340 339 337 336 334 332 332 331 331 330 331 332 332 331 331 334 334 333 333 333 331 332
273 273 293 268 237 209 204 218 240 281 318 322 321 333 336 338 342 340 338 338 340 339 337 333 332 330 328 329 327 327 328 326 326 328 329 329 329 331 333 332 332 330 331 333
292 307 291 101 108 199 229 244 232 260 289 314 326 328 333 352 340 337 334 334 334 335 331 327 327 326 324 326 324 325 323 323 324 325 325 325 326 327 329 331 331 329 332 335
289 275 278 164 175 172 211 266 215 231 280 315 328 313 9 23 340 333 331 330 332 332 328 325 326 327 326 326 328 326 323 323 323 321 320 321 321 320 327 329 327 329 334 336
232 271 285 122 144 141 156 216 178 215 286 317 330 323 357 353 337 332 331 333 332 330 330 329 329 328 325 327 329 329 327 323 321 322 324 324 322 322 323 325 324 328 332 338
221 250 277 125 140 153 253 123 166 213 268 320 321 330 335 339 339 337 333 333 333 333 332 333 332 329 327 329 331 330 325 322 323 327 329 326 323 321 323 323 324 328 331 337
198 247 265 144 150 189 127 133 162 177 143 140 309 350 348 346 339 338 334 337 338 334 331 333 335 331 327 329 330 327 325 326 329 330 329 325 326 326 323 322 326 327 331 338
228 250 133 171 162 154 136 143 153 145 132 131 126 36 357 343 338 336 332 336 337 333 329 333 339 335 327 328 329 327 328 331 333 331 329 331 333 329 328 326 324 320 324 331
263 229 186 188 166 149 138 124 120 119 128 133 127 96 6 338 339 334 336 337 336 334 333 335 338 335 332 331 331 330 333 333 334 333 330 331 333 332 329 326 326 330 337 334
250 230 175 202 189 157 125 122 119 116 126 129 129 113 19 336 335 331 335 337 337 336 332 334 336 335 337 338 336 335 336 336 338 334 333 337 339 339 336 337 346 349 341 335
232 169 164 160 162 149 144 143 142 142 133 118 115 116 35 331 329 333 337 336 336 337 335 334 334 336 340 342 341 341 342 343 340 339 341 341 339 341 347 352 355 4 350 346
136 126 108 124 132 141 140 138 144 145 141 135 130 115 33 325 332 341 340 340 337 334 333 332 334 341 345 344 344 346 347 345 343 345 349 347 346 344 341 347 357 13 2 359
143 129 125 145 144 142 133 132 131 122 123 129 130 105 16 329 344 343 339 334 330 331 334 335 339 346 347 344 346 348 351 352 350 352 353 351 350 346 344 346 353 6 10 8
163 137 137 139 136 134 135 141 142 138 143 134 122 119 348 337 339 333 331 331 330 334 342 340 341 345 346 345 346 349 356 357 353 356 357 360 2 358 356 358 6 8 11 12
145 127 135 142 147 149 154 161 159 155 157 151 161 174 275 302 313 327 331 334 338 336 339 338 337 341 344 345 346 351 359 359 360 0 1 6 8 7 5 6 13 12 13 6
144 154 160 160 163 163 171 174 164 157 158 161 168 172 268 316 347 352 342 341 333 328 335 343 338 337 345 347 347 351 355 359 3 4 5 8 7 8 8 11 13 12 10 3
170 166 167 166 165 164 166 161 152 154 157 158 160 167 140 18 4 342 337 337 343 349 359 351 340 342 348 349 352 354 353 358 2 6 3 7 4 6 7 11 12 10 8 9
155 149 151 156 158 155 155 153 151 152 148 157 161 157 131 26 346 326 328 338 356 358 351 336 338 346 346 351 358 355 354 356 1 4 2 6 3 1 4 6 4 4 3 2
139 138 138 137 140 143 142 145 147 151 157 162 158 160 153 47 339 321 319 332 354 328 319 331 340 344 345 349 357 357 357 357 357 360 357 1 3 357 356 357 354 353 354 352
142 139 138 140 141 142 147 151 155 160 164 169 171 167 157 287 324 314 320 352 357 339 340 341 342 343 352 352 354 358 359 356 356 356 353 352 356 355 350 347 342 340 339 336
144 147 147 149 147 147 153 158 161 158 163 171 174 175 174 157 15 347 301 326 329 340 347 344 338 352 360 355 355 357 357 356 355 354 352 347 344 342 340 335 330 327 324 320
153 156 155 157 154 151 154 161 165 166 171 177 179 180 166 109 32 343 329 328 330 341 352 347 346 356 359 358 354 356 356 356 354 354 353 349 343 334 326 318 312 307 304 304
152 155 152 145 140 148 162 171 171 173 175 181 183 184 176 169 178 230 290 314 334 346 354 351 354 358 1 357 354 355 355 355 352 351 351 349 343 337 333 326 316 307 297 291
149 146 147 153 161 169 168 165 166 173 182 190 194 199 203 198 197 279 310 323 335 345 347 355 3 4 3 355 354 352 351 352 350 351 351 348 343 340 341 344 339 331 320 307
154 159 164 169 170 167 166 169 177 183 186 189 192 196 194 191 207 239 280 303 324 348 353 356 6 6 3 356 353 351 350 351 353 354 351 349 344 340 341 347 346 345 343 337
152 154 155 166 174 174 174 178 180 185 188 188 188 189 191 189 192 200 229 274 304 336 353 359 6 6 4 359 353 351 350 350 352 354 351 348 343 338 335 339 343 343 345 346
Height
1615 1620 1622 1620 1619 1621 1622 1617 1617 1607 1612 1611 1614 1614 1614 1611 1609 1605 1600 1594 1588 1582 1576 1570 1563 1556 1549 1543 1537 1532 1526 1521 1515 1509 1503 1497 1491 1485 1478 1472 1465 1458 1452 1447
1615 1622 1622 1620 1616 1618 1619 1620 1618 1614 1611 1614 1614 1613 1612 1610 1607 1604 1599 1593 1587 1582 1575 1568 1561 1554 1548 1542 1536 1530 1525 1519 1513 1507 1501 1494 1489 1483 1476 1470 1463 1456 1450 1445
1611 1619 1618 1607 1607 1611 1615 1615 1615 1612 1612 1612 1610 1610 1611 1608 1606 1604 1598 1592 1586 1580 1574 1567 1560 1553 1546 1540 1534 1529 1523 1517 1511 1504 1498 1492 1487 1481 1475 1468 1461 1455 1449 1444
1615 1612 1604 1608 1612 1612 1612 1611 1613 1613 1612 1611 1611 1610 1609 1607 1605 1600 1595 1589 1582 1576 1571 1566 1559 1552 1545 1538 1532 1527 1520 1514 1509 1502 1496 1490 1485 1479 1473 1467 1460 1454 1449 1443
1623 1609 1595 1607 1610 1612 1611 1608 1610 1611 1610 1609 1609 1608 1606 1605 1602 1599 1594 1588 1583 1576 1569 1564 1558 1551 1544 1537 1531 1525 1519 1512 1506 1499 1493 1487 1482 1477 1472 1466 1460 1455 1450 1444
1626 1615 1595 1596 1607 1610 1613 1605 1608 1610 1609 1608 1609 1605 1605 1603 1599 1596 1592 1588 1582 1575 1568 1563 1557 1550 1543 1536 1529 1523 1517 1511 1504 1497 1491 1485 1479 1474 1469 1465 1460 1455 1450 1445
1618 1612 1587 1601 1605 1610 1605 1604 1607 1607 1607 1607 1607 1606 1605 1600 1596 1593 1589 1584 1579 1574 1568 1561 1555 1548 1542 1536 1529 1523 1516 1508 1501 1495 1489 1483 1477 1472 1468 1463 1459 1454 1450 1445
1613 1609 1597 1600 1603 1604 1600 1601 1604 1606 1606 1604 1602 1602 1600 1598 1594 1591 1587 1583 1578 1572 1567 1560 1554 1547 1541 1535 1529 1521 1514 1507 1500 1492 1487 1482 1476 1471 1467 1462 1458 1454 1450 1446
1596 1592 1591 1592 1593 1595 1597 1600 1602 1603 1602 1600 1600 1599 1597 1595 1592 1589 1586 1582 1577 1571 1565 1560 1553 1546 1540 1534 1526 1519 1512 1505 1498 1491 1486 1481 1476 1471 1466 1461 1457 1453 1449 1446
1592 1586 1589 1591 1592 1594 1596 1598 1600 1601 1600 1599 1598 1596 1595 1593 1590 1588 1585 1579 1574 1569 1563 1558 1552 1546 1540 1533 1525 1518 1510 1503 1497 1491 1485 1480 1475 1470 1465 1460 1455 1451 1448 1446
1587 1585 1587 1588 1591 1593 1595 1596 1598 1598 1597 1597 1595 1594 1594 1593 1590 1586 1583 1579 1573 1568 1563 1557 1551 1546 1539 1532 1524 1516 1508 1502 1496 1491 1486 1480 1474 1469 1464 1459 1455 1451 1447 1445
1572 1576 1578 1582 1587 1590 1592 1594 1596 1595 1595 1594 1594 1593 1592 1592 1589 1586 1583 1578 1574 1569 1563 1557 1551 1545 1539 1532 1525 1516 1508 1502 1496 1491 1485 1479 1473 1468 1464 1460 1455 1450 1446 1445
1572 1574 1577 1581 1585 1587 1589 1591 1592 1593 1594 1593 1592 1591 1591 1590 1588 1585 1582 1578 1573 1568 1562 1557 1551 1545 1539 1532 1525 1517 1509 1503 1498 1492 1485 1478 1473 1468 1463 1459 1455 1451 1446 1444
1568 1571 1576 1580 1582 1584 1586 1587 1589 1591 1592 1590 1590 1590 1590 1589 1587 1585 1581 1577 1572 1567 1562 1557 1551 1546 1539 1532 1525 1518 1511 1505 1499 1493 1486 1480 1474 1469 1464 1459 1455 1451 1447 1445
1564 1568 1572 1575 1578 1580 1583 1585 1586 1589 1590 1589 1590 1589 1588 1588 1585 1583 1580 1576 1572 1567 1563 1557 1552 1546 1539 1532 1526 1519 1513 1506 1501 1495 1489 1483 1477 1471 1466 1462 1458 1454 1450 1447
1561 1565 1569 1573 1575 1577 1580 1582 1584 1586 1588 1589 1588 1588 1587 1586 1584 1582 1579 1575 1570 1567 1561 1557 1552 1547 1540 1533 1527 1521 1514 1508 1503 1497 1492 1485 1479 1473 1468 1465 1461 1457 1454 1451
1556 1560 1565 1569 1572 1574 1577 1579 1582 1585 1586 1587 1587 1587 1587 1586 1585 1582 1578 1576 1571 1565 1561 1556 1552 1548 1541 1535 1528 1522 1517 1510 1505 1499 1494 1488 1482 1477 1472 1468 1464 1460 1457 1454
1552 1555 1560 1565 1568 1571 1574 1577 1580 1583 1584 1586 1586 1587 1587 1586 1584 1581 1578 1574 1571 1567 1564 1560 1553 1548 1543 1537 1530 1525 1519 1513 1507 1502 1497 1491 1485 1480 1475 1471 1467 1463 1460 1456
1549 1553 1557 1562 1566 1569 1571 1575 1577 1580 1582 1583 1584 1585 1585 1583 1582 1580 1577 1574 1571 1567 1564 1560 1555 1550 1544 1538 1533 1527 1521 1516 1510 1505 1500 1495 1488 1483 1478 1474 1470 1466 1463 1459
1547 1551 1554 1558 1562 1566 1569 1572 1575 1577 1580 1581 1582 1583 1582 1581 1580 1578 1576 1573 1569 1566 1561 1557 1554 1550 1545 1540 1535 1530 1524 1518 1513 1508 1503 1498 1492 1486 1481 1476 1472 1468 1464 1460
1545 1550 1552 1556 1559 1563 1567 1569 1571 1574 1577 1579 1580 1581 1580 1580 1579 1578 1575 1572 1568 1565 1561 1557 1553 1549 1545 1541 1536 1532 1527 1521 1516 1510 1505 1500 1494 1489 1484 1479 1474 1470 1466 1462
1542 1548 1550 1553 1556 1559 1562 1565 1568 1572 1575 1576 1577 1578 1579 1579 1579 1576 1574 1572 1568 1564 1560 1558 1554 1549 1545 1542 1537 1533 1529 1524 1519 1513 1508 1502 1497 1491 1486 1481 1476 1471 1466 1462
1536 1543 1546 1550 1552 1555 1558 1561 1565 1569 1571 1573 1574 1577 1578 1578 1577 1575 1572 1570 1566 1563 1560 1557 1554 1549 1545 1542 1538 1533 1529 1525 1520 1515 1510 1505 1499 1493 1488 1482 1477 1471 1466 1461
1530 1537 1542 1546 1549 1552 1554 1558 1562 1565 1567 1569 1571 1573 1575 1575 1574 1573 1572 1570 1567 1563 1559 1556 1553 1550 1546 1542 1538 1534 1530 1525 1521 1516 1512 1507 1501 1495 1490 1485 1479 1473 1467 1461
1526 1532 1537 1541 1544 1548 1552 1555 1558 1560 1562 1565 1567 1570 1571 1572 1572 1571 1570 1568 1566 1564 1560 1556 1553 1550 1547 1542 1537 1534 1530 1526 1521 1517 1512 1507 1502 1496 1491 1486 1480 1475 1469 1463
1522 1526 1532 1537 1542 1544 1547 1550 1553 1556 1558 1561 1564 1567 1568 1569 1569 1567 1567 1565 1563 1562 1560 1557 1553 1550 1547 1543 1538 1534 1530 1526 1522 1517 1512 1508 1503 1497 1492 1487 1481 1475 1469 1463
1517 1522 1527 1532 1536 1539 1542 1546 1548 1551 1554 1557 1560 1562 1564 1564 1565 1565 1565 1565 1564 1561 1559 1555 1553 1549 1547 1544 1540 1535 1531 1527 1523 1518 1513 1508 1503 1498 1492 1487 1482 1476 1470 1464